Temp
25 25 25 24 24 24 24 24 24 23 23 23 22 22 22 22 22 22 22 21 21 21 21 21 21 21 21 21 21 21 21 21 21 21 21 21 21 21 21 21 20 20 20 20 20 20 19 19 19 19 19 19 19 18 18 18 18 17 17 16 15 15 14 13 13 13 13 14 14 14 14 14 14 15 15 15 15 15 15 16 16 16 17 17 18
24 24 24 24 24 24 24 24 24 23 23 23 22 22 22 22 22 22 21 21 21 21 21 21 21 21 21 21 21 21 21 21 21 21 21 21 21 21 21 20 20 20 20 20 20 19 19 19 19 19 18 18 18 18 18 18 18 17 17 16 16 15 15 14 13 13 13 13 13 14 14 14 14 15 15 15 15 15 15 16 16 16 17 17 17
24 24 24 24 24 24 24 24 23 23 23 23 22 22 22 22 22 22 22 21 21 21 21 21 21 21 21 21 21 21 21 21 21 21 21 21 21 21 21 20 20 20 20 20 20 20 19 19 19 19 17 17 17 17 17 18 18 18 17 17 16 15 15 14 13 13 13 13 13 13 14 14 14 15 15 15 15 15 15 16 16 16 16 17 17
24 24 24 24 24 24 24 24 23 23 23 23 23 22 22 22 22 22 22 22 22 21 21 21 21 21 21 21 21 21 21 21 21 21 21 21 21 21 21 20 20 20 20 20 20 20 19 19 19 19 18 17 17 17 18 18 18 17 17 17 16 16 16 15 14 13 13 13 13 13 13 14 14 15 15 15 15 15 15 15 16 16 16 17 17
23 23 24 24 24 24 24 24 23 23 23 23 23 23 22 23 22 22 22 22 22 22 21 21 21 21 21 21 21 21 21 21 21 21 21 21 21 21 21 20 20 20 20 20 20 20 19 19 19 19 18 18 18 18 18 17 16 16 16 16 16 16 16 15 15 14 13 13 13 13 13 14 14 14 15 15 15 15 15 15 16 16 16 17 17
23 23 24 24 24 24 24 24 23 23 23 23 23 23 23 22 22 22 22 22 22 22 22 22 22 21 21 21 21 21 21 21 21 21 21 21 21 21 21 20 20 20 20 20 20 20 19 19 19 19 18 18 18 18 17 16 16 16 16 16 16 16 16 15 15 14 13 13 13 13 13 14 14 14 15 15 15 15 15 15 15 16 16 16 17
23 23 24 24 24 23 23 23 23 24 23 23 23 23 23 22 22 22 22 22 22 22 22 22 22 21 21 21 21 21 21 21 21 21 21 21 21 21 21 20 20 20 20 20 20 20 20 20 20 19 19 19 19 18 17 17 17 17 17 17 16 16 16 15 15 14 13 13 13 13 13 13 14 14 14 15 14 14 15 15 15 15 15 16 16
23 23 24 24 23 23 23 23 24 24 24 23 23 23 23 23 22 22 22 22 22 22 22 22 22 22 21 21 21 21 21 22 21 21 21 21 21 21 21 20 21 21 20 20 20 20 20 20 20 20 19 19 19 18 18 18 18 17 17 17 16 16 15 14 14 14 13 13 13 13 13 13 14 14 14 14 14 14 14 14 14 15 15 15 15
23 23 24 24 23 22 23 23 24 24 24 23 23 23 23 23 23 22 22 22 22 22 22 22 22 22 21 21 21 21 22 22 22 22 21 21 21 21 21 20 20 20 20 20 20 20 20 20 20 20 19 19 19 19 18 18 18 18 17 17 16 16 15 14 14 13 13 13 13 13 13 13 13 13 13 14 14 14 14 14 14 14 15 15 15
23 23 24 23 23 23 23 23 24 24 24 23 23 23 23 23 23 23 23 23 22 22 22 22 22 22 22 22 22 22 22 22 22 22 21 21 21 20 20 20 20 20 20 20 20 20 20 19 19 19 19 19 19 18 18 18 18 18 18 17 17 16 15 14 14 14 13 13 13 13 13 13 13 13 13 13 14 13 14 14 14 14 14 14 15
24 23 23 23 23 24 23 22 23 24 24 24 24 23 23 23 23 23 23 23 22 22 22 22 22 22 22 22 22 22 22 22 22 22 21 21 20 20 20 20 20 20 20 20 20 20 19 19 19 19 19 19 19 18 18 18 18 18 18 17 17 16 15 15 14 13 13 13 12 13 13 13 13 13 13 13 13 13 13 13 13 14 14 14 14
23 23 24 23 22 23 23 22 23 24 24 24 24 24 23 23 23 23 23 23 23 23 22 22 22 22 22 22 22 22 22 22 22 22 21 21 20 20 20 20 20 20 20 20 19 19 19 19 19 19 19 19 19 18 18 18 18 18 18 17 17 16 16 15 14 13 13 13 13 13 13 13 13 13 13 13 13 13 13 13 13 13 13 14 14
23 23 23 22 21 22 22 21 23 24 24 24 24 24 23 23 23 23 23 23 23 23 23 22 22 22 22 22 22 22 22 22 22 21 21 20 20 20 20 20 20 20 20 19 19 19 19 19 19 19 19 19 19 18 18 18 18 18 17 17 17 16 16 16 15 14 14 14 13 13 13 13 13 13 13 13 12 12 12 12 13 13 13 14 14
23 23 23 22 22 23 22 21 22 24 24 24 24 24 23 23 24 23 23 23 23 23 23 23 23 23 23 22 22 22 22 22 22 21 21 20 20 20 20 19 19 19 19 19 19 19 18 18 18 18 18 18 18 18 18 18 18 18 17 17 16 16 16 16 15 15 15 14 13 13 14 13 13 13 13 13 12 12 12 12 12 12 13 13 14
22 22 22 22 22 22 20 21 23 24 24 24 24 24 24 24 24 24 24 23 23 23 23 23 23 23 22 21 21 21 22 22 21 21 20 20 20 20 19 19 19 19 19 19 19 18 18 17 17 17 17 18 18 17 17 18 17 17 17 16 16 16 16 15 15 15 15 15 14 14 13 13 13 13 13 12 12 12 12 12 12 12 12 13 13
20 20 20 20 19 19 20 22 23 23 23 24 24 24 24 24 24 24 24 23 23 24 23 23 23 22 21 20 19 20 21 21 21 20 20 20 19 19 19 19 19 19 18 18 18 18 18 17 17 17 17 17 17 17 17 17 17 16 16 16 16 15 15 15 15 15 15 15 14 14 14 13 13 13 13 12 12 12 12 12 12 12 12 12 13
19 19 19 18 18 19 21 22 23 23 23 23 23 24 24 24 24 24 24 24 24 23 22 22 22 21 21 21 20 20 21 21 21 20 20 19 19 18 18 18 18 18 18 17 18 18 18 17 17 17 17 17 17 17 17 17 16 16 15 15 15 14 14 15 15 15 15 15 15 14 14 14 13 13 13 13 13 12 12 12 12 12 12 12 13
20 20 20 20 20 20 22 23 23 22 23 23 24 24 24 25 25 24 24 24 23 22 21 21 21 22 21 21 20 20 21 21 21 20 20 19 19 18 18 18 18 18 17 17 17 17 18 17 17 16 16 17 16 16 16 16 16 15 14 14 13 13 14 15 15 15 15 15 15 15 14 13 13 13 13 13 13 12 12 12 13 13 12 13 13
20 20 21 21 21 21 23 24 22 22 23 24 24 25 25 25 25 24 23 22 22 21 21 21 22 22 21 20 20 21 21 21 21 20 20 19 19 18 18 18 18 17 17 17 17 17 17 17 16 16 16 16 16 15 15 15 15 14 14 13 12 13 13 13 13 14 14 14 14 14 13 13 13 13 13 13 12 12 12 12 13 13 13 13 14
21 21 22 21 20 22 24 24 22 22 23 25 25 25 25 25 24 22 22 22 22 21 21 21 21 21 20 20 20 20 21 21 20 19 19 19 18 18 18 17 17 17 17 17 17 17 16 16 15 15 15 15 15 15 15 14 14 13 13 12 12 12 13 13 13 13 14 14 14 13 13 14 14 13 13 13 12 12 12 12 13 13 13 13 14
22 22 22 21 20 22 25 24 22 22 24 25 25 25 24 23 22 22 21 22 21 21 21 21 20 20 20 20 20 19 20 19 19 19 18 18 18 17 17 17 17 17 17 16 16 16 16 15 15 14 14 14 14 14 14 13 13 12 12 12 11 11 12 12 12 13 13 14 14 13 13 14 13 13 12 13 12 12 12 12 13 13 13 13 14
22 22 21 21 21 23 24 23 22 23 24 25 24 23 23 22 22 22 22 21 21 21 21 20 19 19 19 19 19 19 19 18 18 18 17 17 17 16 16 16 16 17 17 16 15 15 15 15 14 14 14 14 14 13 13 12 12 12 12 11 11 11 11 11 11 12 12 13 13 12 12 13 13 12 12 12 12 12 12 12 13 13 13 13 14
23 23 22 21 22 23 23 23 23 24 24 23 22 22 22 22 22 21 21 21 21 21 20 19 19 19 19 19 18 18 18 17 17 17 16 16 16 16 16 16 16 16 16 15 14 14 14 14 14 14 14 13 13 12 12 11 11 11 11 11 11 11 11 11 11 12 12 12 12 11 11 12 12 11 12 12 12 12 12 12 13 13 13 13 13
24 23 21 21 21 22 23 23 23 23 23 23 23 22 22 22 22 21 21 21 21 21 20 19 19 19 18 18 18 17 17 17 17 16 16 16 15 15 16 16 16 16 15 14 14 14 14 14 14 13 13 12 12 11 11 11 11 11 10 10 11 11 11 10 10 11 11 11 10 10 11 11 11 11 11 12 12 12 12 12 13 13 13 13 13
23 22 21 21 21 23 24 24 24 24 23 23 23 22 22 22 23 22 22 22 21 20 19 19 19 19 18 18 17 17 17 16 16 15 15 15 15 15 15 15 15 15 14 14 14 14 13 13 13 13 13 12 11 11 11 10 10 10 10 10 10 10 10 9 9 10 10 9 9 10 10 10 10 11 11 11 12 13 12 12 13 13 13 13 13
22 22 22 22 23 24 24 24 24 23 23 23 23 23 23 23 23 22 22 21 20 19 19 19 19 18 18 18 17 17 16 16 15 15 15 14 15 15 15 15 15 14 14 14 13 13 13 13 13 12 12 12 11 11 10 10 10 10 10 10 10 9 9 9 9 9 9 9 9 9 9 9 10 11 12 11 12 12 12 12 13 13 13 13 14
22 23 23 23 23 24 24 24 23 23 23 23 23 23 22 22 22 21 21 20 20 19 19 19 18 18 18 17 17 16 16 15 15 15 14 14 14 15 15 15 14 14 14 14 13 13 13 12 12 12 12 11 11 11 10 10 10 10 9 9 9 9 9 8 8 8 8 8 9 9 9 9 10 11 11 11 11 12 12 12 12 13 12 13 13
22 22 23 23 23 23 23 23 23 23 22 22 22 22 21 21 21 21 20 20 20 19 19 18 18 18 17 17 16 15 15 15 15 15 14 14 14 14 14 14 14 13 13 13 13 13 12 12 12 11 11 11 11 10 10 9 9 9 9 8 8 8 8 8 8 8 8 8 8 9 9 9 9 10 10 10 11 11 11 12 12 13 12 12 12
21 21 22 22 22 23 23 23 22 22 21 21 21 21 21 21 21 20 20 19 19 19 18 18 18 17 17 16 16 15 15 15 15 14 14 14 14 14 14 13 13 13 13 13 13 12 12 12 12 11 11 10 10 10 9 9 8 8 8 8 8 8 8 8 8 8 8 8 8 8 8 9 9 9 9 10 10 11 11 11 12 12 12 12 12
20 20 21 22 22 23 22 22 21 21 21 21 20 20 19 19 19 19 18 18 18 18 18 17 17 17 16 16 15 15 15 15 14 13 13 14 14 13 13 13 12 12 12 13 13 12 11 11 11 10 10 9 9 9 8 8 7 7 8 8 8 8 8 8 8 8 8 8 8 8 8 8 8 9 9 9 10 10 11 11 11 12 12 12 12
19 20 21 21 22 22 21 20 20 20 20 20 20 19 18 17 16 17 17 17 16 17 17 16 16 16 15 15 15 14 14 14 13 13 13 13 13 13 12 12 12 12 12 12 12 11 11 11 10 10 9 9 8 8 7 7 7 7 7 7 8 7 7 7 7 8 7 7 8 8 8 8 8 8 9 9 9 10 10 10 11 11 11 12 12
19 20 20 21 21 21 20 20 20 20 19 19 19 18 17 15 14 14 15 15 15 15 15 15 15 15 14 14 14 14 13 13 13 13 13 12 12 12 12 11 11 11 12 12 11 11 10 10 9 9 9 8 8 8 8 7 7 7 7 7 7 7 7 7 7 7 7 7 7 8 8 8 8 8 8 9 9 9 9 10 10 10 11 11 12
20 20 21 21 21 20 20 21 20 20 19 18 18 17 17 16 14 13 13 13 14 14 14 14 14 14 14 13 13 13 13 12 12 12 12 11 11 12 11 11 11 11 11 11 11 10 10 9 9 9 8 8 8 8 8 8 7 7 7 7 7 7 7 7 7 7 7 7 7 7 8 8 8 8 8 8 9 9 9 9 9 10 10 10 11
21 21 22 22 21 21 21 21 20 19 19 19 18 18 17 17 16 14 12 12 12 12 13 13 13 14 14 13 12 12 12 12 12 11 11 11 11 11 11 11 10 10 11 11 10 10 9 9 9 9 8 8 8 8 8 8 7 7 7 7 7 7 7 7 7 7 7 7 7 7 7 8 8 8 8 8 8 9 9 9 9 9 9 10 10
22 22 22 22 22 21 21 21 20 20 20 19 19 18 17 16 16 15 14 13 13 12 12 13 13 13 13 13 12 12 12 12 11 11 11 11 11 11 11 11 10 10 10 10 10 9 9 9 9 9 8 8 8 8 8 8 7 7 7 7 7 6 6 7 7 7 7 7 7 7 7 7 8 8 8 8 8 8 8 9 9 9 9 9 9
22 22 22 22 22 21 21 21 20 20 20 19 18 17 17 16 15 15 15 14 14 13 13 12 12 12 12 12 12 12 12 12 11 11 10 10 10 11 11 10 10 10 10 9 9 9 9 9 9 8 8 8 8 8 8 7 7 7 6 6 6 6 6 6 6 6 7 7 6 7 7 7 8 8 8 8 8 8 8 8 8 9 9 9 9
22 21 21 21 21 21 21 20 20 20 20 19 18 17 16 16 15 15 14 14 14 13 13 12 12 11 11 12 12 12 11 11 11 11 10 10 10 10 10 10 10 10 9 9 9 9 9 9 9 8 8 8 8 8 7 7 7 7 6 6 6 6 6 6 6 6 6 6 6 6 6 7 7 7 8 8 8 8 8 8 8 8 9 9 9
22 21 21 21 20 20 20 19 19 19 18 18 17 17 16 15 15 15 14 14 13 13 13 12 11 11 11 11 11 11 11 11 11 11 11 10 10 10 10 10 10 10 9 9 9 9 9 9 8 8 8 8 8 7 7 7 7 6 6 6 6 6 5 6 6 6 6 6 6 6 6 6 7 7 7 7 8 8 8 8 9 9 9 9 9
21 21 20 20 20 20 19 19 18 18 17 17 17 17 16 15 14 14 14 13 13 13 12 11 11 11 11 11 11 11 11 10 10 11 11 10 10 10 10 10 9 9 9 9 9 9 9 8 8 8 8 8 7 7 7 7 6 6 6 6 6 5 5 5 6 6 6 6 6 6 6 6 6 7 7 7 7 8 8 8 9 9 9 9 9
20 20 19 19 19 19 18 18 18 17 17 17 17 16 16 15 15 15 14 13 13 12 11 11 11 11 11 11 11 11 10 10 10 10 10 10 10 9 9 9 9 9 9 9 9 9 8 8 8 8 8 7 7 7 6 6 6 6 6 6 6 5 5 5 6 6 6 6 6 6 6 6 6 7 7 7 7 8 8 8 8 9 9 9 9
20 19 19 18 19 18 18 18 17 17 17 17 16 16 16 15 15 15 14 13 13 12 11 11 11 11 11 11 11 10 10 10 11 10 10 10 9 9 9 9 9 9 9 9 9 9 8 8 8 7 7 7 7 6 6 6 6 6 6 6 5 5 5 5 6 6 6 6 6 6 6 6 6 7 7 7 7 8 8 8 8 9 9 9 9
19 18 18 17 17 17 17 17 16 16 16 16 15 15 15 15 15 15 14 14 13 12 11 11 11 11 11 10 10 10 10 11 10 10 10 10 9 9 9 9 9 9 9 9 8 8 8 8 7 7 7 7 6 6 6 6 6 6 6 6 5 5 5 6 6 6 6 6 6 6 6 6 7 7 7 7 8 8 8 8 8 8 9 9 9
17 17 17 16 16 15 15 16 16 15 15 15 15 15 15 15 15 14 14 14 13 12 11 11 10 11 10 10 10 10 10 10 10 9 9 9 9 9 9 9 9 9 8 8 8 8 8 8 7 7 7 6 6 6 5 5 5 5 6 6 5 5 5 5 6 6 6 6 6 6 6 6 6 7 7 7 8 8 8 8 8 8 8 9 9
17 16 16 15 15 15 15 15 15 14 14 13 14 14 14 14 14 14 14 13 13 12 12 11 11 10 10 10 10 10 10 9 9 9 9 9 9 9 9 8 8 8 8 8 8 8 8 7 7 7 6 6 6 5 5 5 5 5 5 5 5 5 5 5 5 6 6 6 6 6 6 6 6 7 7 7 8 8 8 8 8 8 8 8 9
16 16 16 15 15 15 15 14 14 14 13 13 13 13 13 13 14 13 13 13 12 12 11 11 10 10 10 10 10 10 9 9 9 9 9 9 9 9 9 8 8 8 8 8 8 8 7 7 7 6 6 6 5 5 5 5 5 5 5 5 5 5 5 5 5 5 6 6 6 6 6 6 6 6 7 7 8 7 8 7 7 8 8 8 8
16 16 15 15 15 15 15 14 14 14 14 14 13 13 13 13 13 13 13 12 12 12 11 10 10 10 10 10 10 10 9 9 9 9 9 9 9 9 9 9 9 8 8 8 8 7 7 7 6 6 6 5 5 5 5 5 5 5 5 5 5 5 5 5 5 5 6 6 6 6 6 6 6 6 7 7 8 8 8 8 7 8 8 8 8
15 15 15 15 15 15 14 14 14 14 14 14 13 13 13 13 13 13 13 12 12 12 11 11 10 10 10 10 10 10 9 10 10 9 9 9 9 9 9 9 9 8 8 8 8 7 7 7 6 6 6 5 5 5 5 5 5 5 5 5 5 5 5 5 5 5 6 6 6 6 6 6 6 6 7 7 8 8 8 8 7 7 8 8 8
14 14 15 15 15 14 14 14 14 14 14 14 13 13 13 13 13 13 13 12 12 12 12 11 11 10 10 10 10 10 10 10 10 10 10 9 9 9 9 9 9 8 8 8 7 7 7 6 6 6 6 5 5 5 5 5 5 5 5 5 5 5 5 5 5 5 5 5 6 6 6 6 6 6 7 7 7 7 7 7 7 8 8 8 8
14 14 14 14 14 14 14 14 14 14 14 14 14 13 13 13 13 13 13 13 12 12 12 12 11 11 10 10 10 10 10 10 10 10 10 10 9 9 9 9 9 8 8 8 7 7 7 6 6 6 6 6 5 5 5 5 5 4 4 5 5 5 5 4 5 5 5 5 6 6 6 6 6 6 6 6 7 7 7 7 7 8 8 8 7
14 14 14 14 14 14 14 14 14 14 14 14 14 14 13 13 13 13 13 13 12 12 12 12 12 11 11 11 11 11 11 10 10 10 10 10 9 9 9 9 9 8 8 8 7 7 7 6 6 6 6 6 5 5 5 5 5 5 4 5 5 5 5 4 5 5 5 5 5 5 5 6 6 6 6 6 6 7 7 7 7 7 7 7 7
14 14 14 14 14 14 14 13 13 13 13 13 13 13 13 13 13 13 13 13 13 12 12 12 12 12 11 11 11 11 11 11 11 10 10 10 9 9 9 9 9 8 8 8 7 7 7 6 6 6 6 6 6 5 5 5 5 5 5 5 5 5 5 4 5 5 5 5 5 5 5 5 6 6 6 6 6 6 6 7 7 7 7 7 7
Height
783 786 788 791 795 797 799 800 802 803 805 806 808 808 809 810 812 814 815 816 817 818 818 819 818 819 819 819 819 819 819 818 818 818 817 817 817 816 816 815 815 815 814 813 812 812 812 811 811 811 810 808 808 808 808 809 808 808 807 806 806 806 805 804 801 796 793 792 791 788 786 783 780 777 774 770 768 766 764 762 760 758 756 754 752
780 783 786 790 794 796 797 799 800 802 803 805 806 806 807 808 809 812 813 814 816 816 817 817 817 817 817 817 818 818 818 817 817 816 816 815 815 815 814 814 813 812 812 811 810 810 809 808 808 808 807 808 808 807 806 806 805 805 804 804 803 803 802 801 799 795 791 789 787 785 783 781 777 774 772 768 765 763 760 757 756 754 752 750 747
778 782 785 789 792 794 795 797 798 799 801 803 805 805 804 805 807 809 810 812 813 814 815 816 816 816 816 816 816 816 816 816 815 815 814 814 813 813 812 812 811 810 809 809 808 808 807 807 806 806 806 806 807 806 805 804 803 802 801 801 800 800 799 798 795 793 789 786 784 782 779 778 775 771 769 765 762 760 757 754 752 750 748 746 743
777 780 784 787 790 792 793 795 797 797 799 801 803 804 803 803 805 806 808 809 811 812 813 813 814 813 813 814 814 814 814 814 814 813 812 812 811 810 810 809 809 808 808 807 806 806 805 805 804 803 803 803 803 803 802 801 800 799 798 798 797 796 795 794 792 790 788 784 782 780 777 775 771 768 765 761 758 757 754 751 748 745 743 742 739
775 778 782 785 787 789 791 794 795 795 796 799 802 802 802 802 803 804 805 807 808 809 810 811 811 811 811 812 812 812 812 812 812 811 810 809 809 808 807 807 806 806 806 805 804 804 803 802 802 801 801 800 799 799 799 798 798 798 796 795 794 793 792 791 789 787 785 782 779 777 775 772 768 765 763 759 754 751 749 747 744 741 738 736 734
772 775 779 782 784 786 787 790 792 792 793 796 799 800 800 800 801 802 803 804 806 807 808 808 808 809 809 810 810 810 810 810 809 809 808 807 806 806 805 804 804 804 803 803 802 802 801 800 799 799 798 797 796 796 795 795 795 794 792 791 791 790 788 787 786 784 783 781 778 775 772 770 766 761 759 757 753 748 744 740 738 737 735 732 730
768 772 776 778 780 782 785 788 789 789 790 794 796 797 797 798 799 800 801 802 803 804 805 806 806 807 808 808 808 808 808 808 808 807 807 806 805 804 803 802 802 801 801 801 800 800 799 798 797 796 796 795 794 793 793 792 791 790 788 787 787 787 785 784 783 782 780 779 777 773 770 767 763 758 755 754 751 746 743 738 732 731 730 728 726
764 768 772 774 777 780 787 791 790 787 788 791 793 794 794 795 797 798 799 800 801 802 803 804 805 806 807 807 806 806 806 806 806 806 805 804 803 802 801 800 799 799 798 798 798 797 796 796 795 794 793 792 791 791 790 789 788 787 785 784 784 783 782 781 781 780 778 776 774 771 767 764 760 755 752 750 746 742 741 738 732 727 725 723 721
760 764 767 769 773 777 782 786 786 786 787 788 790 791 791 793 795 796 797 798 799 800 801 802 803 804 805 805 804 804 804 804 804 804 803 803 802 801 800 799 797 797 796 795 795 795 794 793 792 791 790 789 789 788 788 787 786 784 783 782 782 780 780 779 778 776 775 774 771 768 765 761 757 752 749 747 744 739 737 735 730 726 723 719 715
754 758 760 763 767 771 775 779 781 782 784 786 787 787 788 791 793 794 795 796 797 798 799 800 801 802 802 802 802 802 802 802 801 801 801 801 800 799 798 797 796 795 794 793 793 792 792 791 790 789 788 787 786 786 785 784 783 782 781 780 779 779 778 777 775 773 773 771 768 765 762 758 754 751 747 743 740 736 733 731 727 723 721 716 709
750 754 757 761 764 767 772 778 779 779 780 782 783 784 786 788 790 792 792 794 795 796 797 797 798 799 799 799 799 799 799 799 799 799 799 799 798 797 796 795 794 793 792 791 790 789 789 788 787 786 786 785 784 783 782 782 780 780 779 778 777 777 776 774 772 771 770 768 765 763 759 754 751 748 744 740 736 732 730 728 724 720 717 714 707
750 754 757 763 769 772 775 777 776 775 777 778 780 782 784 786 788 789 790 791 792 793 794 794 795 795 795 795 795 795 795 795 796 796 796 796 796 795 794 793 792 791 790 789 788 787 786 785 785 784 783 783 782 781 779 778 778 777 777 776 775 774 773 771 770 769 768 765 763 760 756 751 747 744 741 737 732 728 725 723 720 717 713 710 706
746 749 751 759 769 775 777 776 774 774 774 775 777 779 781 783 785 786 787 788 790 790 791 791 792 792 793 792 792 792 792 793 793 794 793 793 793 792 791 791 790 789 788 786 785 784 783 783 782 781 781 781 780 779 777 776 775 774 774 774 773 772 771 769 768 767 765 763 760 757 753 748 744 741 738 734 729 724 719 716 714 712 708 703 700
742 745 750 757 764 770 772 773 773 773 773 773 775 776 778 780 781 783 784 786 786 787 788 788 789 789 789 789 789 789 790 790 790 791 790 790 790 789 789 789 788 787 785 784 783 782 781 780 780 779 779 778 778 776 775 774 773 772 771 771 770 769 768 766 765 764 762 760 757 753 749 746 741 736 733 730 726 720 714 710 707 705 701 697 695
744 748 752 756 761 766 769 771 773 772 771 772 773 773 775 776 778 780 781 782 782 783 784 785 785 786 787 788 790 789 788 788 788 788 788 788 787 787 787 786 786 784 783 782 781 780 779 779 778 777 776 776 775 774 773 772 771 770 769 767 766 765 764 763 762 761 759 756 754 749 745 742 738 733 728 724 720 715 709 704 700 697 695 691 688
750 753 755 756 760 764 767 769 770 770 770 770 770 770 771 772 774 775 777 778 778 779 780 782 783 783 785 788 789 788 786 785 785 785 785 785 785 785 784 784 783 782 781 780 779 778 778 777 776 775 774 773 773 772 771 770 768 767 766 764 763 762 760 760 759 757 755 752 749 745 741 737 733 729 723 718 713 708 702 697 693 690 688 684 681
747 752 755 757 762 767 767 765 764 766 767 767 767 767 768 768 769 771 773 774 775 777 778 779 780 781 781 783 784 783 783 783 783 783 783 783 783 782 783 782 781 780 778 777 776 776 776 775 774 773 772 771 771 770 770 768 766 765 763 761 760 759 757 757 756 754 752 749 745 741 737 733 728 723 718 713 707 702 695 689 684 681 679 676 673
741 745 750 755 761 765 763 759 760 762 763 763 763 763 764 765 766 768 770 771 773 774 775 776 778 778 777 779 780 781 781 780 780 780 780 780 780 780 781 780 779 778 776 775 774 774 774 773 772 771 770 769 769 769 768 766 764 763 761 759 758 756 755 754 751 749 747 745 741 737 732 728 723 718 712 706 700 695 688 681 675 671 668 667 666
740 741 744 748 756 760 758 755 756 759 759 759 759 760 761 762 764 766 768 769 770 772 773 775 777 776 776 778 780 780 779 778 778 778 778 778 778 778 778 777 776 775 774 773 772 771 771 771 770 769 768 768 768 767 766 764 762 761 759 757 756 754 752 751 748 745 743 740 736 732 727 723 719 712 706 699 692 687 680 673 666 661 659 659 660
736 737 739 744 753 757 755 752 753 755 755 755 756 757 759 760 762 764 766 767 769 770 771 773 774 774 774 775 777 777 777 776 776 776 776 776 776 776 776 775 774 773 772 771 770 770 770 769 768 767 767 766 765 764 763 762 760 759 757 756 754 752 750 747 745 743 740 737 733 729 724 720 715 708 701 693 685 678 672 665 659 654 652 652 653
732 736 740 744 750 752 750 749 750 751 752 752 753 755 757 759 761 763 764 766 767 768 770 772 773 772 772 772 773 775 775 775 774 774 774 774 774 773 773 772 772 771 770 769 769 768 768 767 767 766 765 764 763 762 761 760 759 757 756 754 752 750 748 745 743 741 739 735 730 726 722 718 712 705 697 688 680 672 665 658 652 649 648 647 648
731 735 739 742 744 745 745 746 747 748 749 750 752 755 756 759 760 761 763 765 766 768 770 770 771 771 770 771 772 773 773 773 772 772 772 772 772 772 771 770 770 769 768 768 767 767 766 766 765 764 763 762 761 760 760 759 757 756 755 753 751 748 746 743 741 739 736 733 729 725 721 716 710 703 694 685 675 667 661 654 648 645 643 643 644
729 732 736 739 742 742 742 743 744 746 748 749 752 754 756 758 759 760 761 763 764 766 767 768 769 770 770 770 771 771 771 771 770 770 771 771 771 770 769 769 768 768 767 766 766 766 765 764 763 762 762 761 760 759 758 757 756 754 753 751 749 746 744 742 740 737 734 731 728 724 720 716 710 703 694 684 674 667 661 655 647 641 640 641 642
728 731 736 743 746 744 742 743 744 745 747 749 751 753 755 756 757 759 760 761 762 763 765 767 769 769 769 769 769 769 769 768 768 769 769 769 769 768 768 768 767 766 766 765 765 764 763 762 762 761 760 759 759 758 757 756 754 753 751 748 746 744 742 740 738 736 733 730 727 724 720 716 711 705 697 689 679 671 664 657 648 641 639 640 641
726 730 739 746 747 744 742 743 744 745 747 749 750 752 754 755 756 758 759 760 761 763 765 767 767 767 768 768 767 767 767 766 766 767 767 767 767 767 767 766 765 765 765 764 764 763 762 761 760 759 759 758 757 756 755 754 753 751 749 747 745 743 741 740 737 735 732 730 727 723 719 716 711 705 699 693 684 674 665 658 650 643 639 639 641
726 732 739 743 742 742 743 743 745 747 749 750 751 752 753 754 755 757 759 759 761 763 764 765 765 766 766 766 766 765 765 764 765 765 765 766 766 766 765 765 764 764 763 763 763 761 760 760 759 758 758 757 756 755 754 753 751 750 747 746 744 743 741 739 737 735 733 730 727 722 718 715 710 704 698 693 686 678 669 661 653 646 641 640 641
732 734 736 738 740 742 743 743 745 748 749 750 751 752 752 753 755 757 758 759 760 762 763 763 764 764 764 764 764 764 763 763 763 763 764 764 764 764 764 763 763 763 762 762 761 760 759 758 758 757 757 756 755 754 753 752 750 748 746 745 744 743 741 740 738 736 733 730 726 722 718 713 708 702 697 692 687 681 674 666 658 652 647 644 642
739 737 736 738 740 741 741 743 745 748 749 750 750 751 752 754 755 756 757 758 759 760 761 762 762 763 763 763 762 762 762 761 761 761 762 762 763 763 762 762 762 761 761 760 760 759 758 758 757 757 756 755 754 753 752 751 749 747 746 745 744 743 741 739 737 735 733 730 726 722 717 712 708 703 698 693 688 683 677 670 664 659 655 650 647
740 738 737 738 739 740 742 745 746 747 748 749 750 751 753 754 755 755 757 758 758 759 760 760 761 761 761 761 761 760 760 760 760 760 761 761 761 761 761 761 760 760 759 759 759 758 758 757 756 755 754 753 752 751 750 749 748 747 746 745 744 742 740 738 736 734 732 729 726 722 717 712 708 705 700 695 690 685 680 675 670 665 661 657 654
743 743 742 742 743 745 746 747 747 747 748 748 749 751 753 754 755 756 756 757 758 758 758 758 759 759 759 759 759 759 759 759 759 760 760 760 760 760 760 760 759 759 759 758 758 757 757 756 755 754 753 752 751 751 750 749 747 747 746 745 744 742 740 738 736 734 732 729 726 722 718 714 710 706 702 698 693 688 682 678 673 669 665 662 659
747 745 745 746 747 747 746 746 746 746 747 747 749 750 752 754 755 755 756 756 757 757 757 757 757 757 758 758 758 758 758 758 759 759 759 759 760 760 760 759 759 758 758 757 757 757 756 755 755 754 753 752 751 751 750 749 748 747 746 745 744 742 740 738 736 734 732 730 727 723 720 716 712 708 705 701 697 691 686 681 677 673 670 667 664
742 741 740 740 741 742 743 743 744 744 745 747 748 749 750 752 754 755 755 755 755 755 755 756 756 756 757 757 757 757 758 758 758 758 758 758 759 759 759 759 758 758 758 757 757 756 756 755 755 754 753 752 751 750 750 749 748 747 746 745 744 742 741 739 737 735 733 730 728 725 721 718 714 710 707 703 699 695 691 685 681 677 674 671 669
735 736 736 735 736 738 740 740 741 742 743 745 746 747 748 749 750 752 753 753 753 754 754 754 755 755 756 756 757 757 757 757 757 757 757 758 758 758 758 758 758 757 757 757 757 756 756 755 755 754 753 752 751 750 749 748 748 747 746 746 745 743 741 739 737 735 733 731 729 726 722 719 715 712 709 706 702 699 695 690 686 682 679 676 673
730 732 733 733 734 736 737 738 739 740 742 743 744 745 746 746 747 748 750 751 752 753 753 754 755 755 755 756 756 757 757 757 757 757 757 757 757 757 758 758 758 758 757 757 757 757 756 756 755 754 754 753 751 750 749 748 748 747 746 746 745 743 741 739 737 735 733 731 729 726 723 720 717 713 710 707 704 701 698 694 692 688 684 681 677
729 730 731 732 733 734 736 737 738 740 741 742 742 743 743 744 745 746 747 749 750 751 752 753 754 755 755 756 757 757 757 757 757 757 757 757 756 757 757 758 758 758 758 757 757 757 757 757 756 755 754 753 752 751 750 748 748 747 746 745 744 743 741 739 737 736 734 732 730 727 725 722 719 715 713 710 707 704 701 699 696 693 689 686 682
728 730 731 731 733 734 736 737 738 739 739 740 740 741 741 742 744 745 746 747 748 750 751 753 754 755 755 756 756 757 757 757 757 757 757 757 756 756 756 757 757 758 758 758 758 758 758 757 756 755 754 753 752 751 750 749 748 747 746 745 744 742 741 740 738 736 734 733 731 728 726 723 721 717 714 712 710 707 705 702 700 696 693 690 686
727 728 729 731 732 733 735 736 736 737 738 738 739 740 741 742 743 744 745 746 747 749 750 752 753 753 754 755 756 757 757 757 757 757 758 757 757 757 757 757 757 757 758 758 758 758 758 757 756 756 755 753 752 751 750 749 748 747 746 745 744 742 741 740 739 737 736 734 732 729 727 725 723 720 717 714 712 709 707 704 702 699 696 693 690
726 727 728 730 731 732 733 734 735 735 736 737 737 739 740 741 742 743 744 745 746 748 749 750 751 752 753 754 755 756 756 756 756 757 757 757 757 758 758 757 757 757 758 758 758 758 757 757 756 755 755 753 752 751 750 749 748 747 746 745 744 743 742 741 740 738 736 734 733 731 729 727 724 722 719 716 714 712 709 706 704 701 698 696 694
724 725 727 728 729 731 732 733 733 735 736 736 736 737 738 739 740 741 743 744 745 747 748 749 750 751 752 754 754 755 755 755 755 755 756 757 757 758 758 757 757 757 757 757 757 757 757 757 756 755 754 753 752 751 750 749 748 747 746 745 744 743 742 741 740 739 737 735 734 732 730 728 726 724 722 719 717 714 712 709 707 704 701 699 696
723 724 726 727 728 730 731 731 733 734 735 735 735 736 737 738 739 740 741 742 744 745 746 747 749 750 752 753 754 754 754 754 753 754 754 755 756 757 757 757 757 757 757 757 757 757 757 756 756 755 754 753 752 752 750 749 748 747 746 745 744 743 742 741 741 739 738 736 735 733 731 729 727 725 723 721 719 716 714 711 709 707 704 701 697
722 724 725 726 728 729 730 731 732 733 733 734 734 735 736 737 738 739 740 741 743 744 745 746 748 750 751 753 753 753 753 753 753 753 753 754 755 756 757 757 757 756 757 757 757 756 756 756 755 755 754 753 753 752 751 750 748 747 746 745 744 744 743 742 741 740 739 737 736 734 732 731 729 727 725 723 721 718 716 713 711 709 706 703 700
723 724 725 727 728 729 729 730 731 732 733 734 735 736 737 737 738 739 740 741 742 743 744 745 748 749 751 752 753 753 753 752 752 753 753 754 755 756 756 756 756 756 756 756 756 756 756 756 755 755 754 754 753 752 751 750 749 748 747 746 745 744 744 743 742 741 740 739 737 735 734 732 730 728 727 725 722 720 718 715 713 710 708 705 703
723 724 725 727 729 731 731 731 731 732 733 734 735 736 737 737 738 739 739 740 742 742 743 745 747 749 751 751 752 752 752 752 752 753 753 754 755 755 756 756 756 756 756 756 756 756 756 755 755 755 754 754 753 753 752 751 750 748 748 746 745 745 744 743 743 742 740 739 738 737 735 733 731 729 728 726 724 722 720 717 715 713 710 708 705
723 724 725 726 727 730 731 731 730 731 733 734 735 736 736 737 738 739 739 740 741 742 743 745 746 748 750 751 751 751 751 752 752 752 752 753 754 755 755 755 756 756 756 756 756 756 756 755 755 755 754 754 754 753 752 751 750 749 748 747 746 746 745 744 744 743 741 740 739 738 736 734 732 731 729 727 725 723 721 719 717 715 713 710 708
724 725 726 726 727 728 729 730 730 731 732 734 735 735 736 737 738 738 739 740 741 742 743 744 745 747 749 749 750 750 751 751 751 752 752 753 753 754 754 755 755 755 756 756 756 756 756 755 755 754 754 754 754 753 753 752 751 750 749 748 747 747 746 745 745 744 743 742 740 739 738 736 734 733 731 729 727 725 723 721 720 717 715 713 711
724 725 726 726 727 728 728 729 730 731 731 732 733 734 735 736 737 738 739 740 740 741 743 744 745 746 747 748 749 749 749 750 750 750 751 752 752 753 753 753 754 755 755 756 756 756 756 755 755 755 754 755 754 754 753 752 751 751 750 749 748 748 747 747 746 745 744 743 742 740 739 738 736 735 733 731 730 728 726 724 722 720 718 716 714
725 726 726 727 727 727 728 729 729 730 730 731 732 733 735 736 736 737 738 739 740 741 742 743 744 745 746 747 748 748 748 749 749 749 750 751 752 752 752 752 753 754 755 755 756 756 755 755 755 755 755 755 754 754 754 753 752 751 751 750 749 749 748 748 747 746 745 744 743 741 740 739 738 737 735 733 732 730 728 727 725 723 721 719 717
726 726 727 727 727 727 728 728 729 729 730 731 732 733 734 735 736 736 737 738 739 740 740 741 742 743 744 745 746 746 747 748 748 748 750 750 751 752 752 752 752 754 754 755 755 756 755 755 755 755 755 755 755 755 754 753 752 752 751 750 750 750 749 748 748 747 746 745 744 743 742 740 739 738 736 735 734 732 730 729 727 726 724 722 720
727 727 727 727 727 728 728 728 729 729 729 730 731 731 732 733 734 734 735 737 737 738 739 740 741 742 743 744 744 745 746 746 747 748 749 749 750 751 752 752 752 753 754 754 755 755 755 755 755 755 755 755 755 755 754 754 753 752 752 751 750 750 749 749 748 748 747 746 745 743 742 741 740 739 738 737 735 734 733 731 730 728 726 725 723
727 727 727 728 728 728 728 728 728 729 729 729 729 730 730 731 731 732 733 734 735 736 737 738 739 740 741 742 743 744 745 745 746 746 747 748 749 750 751 752 752 753 753 754 755 754 754 755 755 755 755 755 755 755 755 754 753 752 752 751 751 750 750 750 749 748 747 747 745 744 743 742 741 740 739 738 737 736 734 733 732 730 729 727 726
727 727 727 727 727 727 728 728 728 728 728 728 728 728 728 728 729 730 730 731 733 734 735 736 737 738 739 740 741 743 743 744 744 745 745 746 747 749 750 751 751 752 753 753 754 754 754 754 755 755 755 755 755 755 755 754 754 753 752 751 751 750 750 750 749 749 748 747 746 745 744 743 743 742 740 739 738 737 736 735 734 732 731 729 728
Wind_Speed
37 36 35 34 33 31 28 25 22 20 18 16 17 17 16 15 12 12 13 13 13 13 13 14 13 13 12 11 10 10 11 11 11 11 11 12 13 14 16 16 16 16 16 15 17 19 20 19 16 16 19 19 16 15 12 8 6 6 5 7 9 10 13 14 11 11 18 22 23 26 29 30 30 30 31 32 32 31 31 31 30 30 32 33 35
38 37 35 34 33 31 29 26 23 21 19 18 18 17 16 14 13 13 15 15 15 15 15 15 14 13 11 10 10 10 12 13 12 12 12 13 14 15 17 17 16 15 15 15 16 18 19 19 18 19 19 17 15 15 14 12 10 10 9 9 11 12 12 15 16 13 16 21 24 26 28 28 30 32 32 32 33 32 32 33 32 31 31 33 34
37 36 35 34 33 32 30 27 25 22 20 19 19 18 16 14 14 15 17 18 18 17 16 15 13 13 12 12 11 12 13 13 13 14 15 16 17 17 16 17 17 18 18 18 17 17 18 19 19 19 19 16 17 18 17 16 15 15 14 12 13 14 14 16 18 17 16 21 24 26 28 29 30 33 33 33 34 32 31 34 34 32 32 32 33
34 33 33 34 34 33 30 27 26 24 22 21 20 19 16 14 14 16 18 19 19 18 17 16 15 14 13 12 12 12 13 14 14 15 15 15 15 14 15 16 18 19 18 18 17 16 18 19 19 20 21 20 21 21 21 21 20 18 17 15 15 16 17 17 19 19 19 21 25 26 28 30 32 33 33 33 34 32 31 33 35 35 33 32 33
33 32 33 34 34 34 31 28 28 27 24 22 21 19 17 15 16 17 19 19 19 19 18 17 16 15 14 12 12 13 14 14 14 14 13 13 13 14 15 16 17 17 15 15 15 16 18 20 20 19 21 21 22 23 23 22 19 18 20 20 19 19 18 19 20 21 21 23 25 27 28 30 32 33 32 32 34 34 33 33 35 34 32 32 32
33 33 34 35 35 35 32 30 31 28 25 23 22 20 18 17 18 20 20 20 19 18 17 17 18 18 15 13 13 14 13 12 13 13 13 14 15 16 15 15 15 14 14 13 14 16 17 18 18 18 20 22 24 25 24 22 21 23 24 24 24 23 21 21 21 21 22 24 25 26 28 29 30 31 32 32 32 33 33 35 35 32 30 30 31
35 35 35 36 36 36 33 32 32 29 25 25 24 22 19 19 20 21 20 19 17 17 17 17 17 16 15 13 14 14 13 12 13 13 14 15 16 16 15 14 14 14 14 13 13 14 14 15 16 17 19 21 24 24 24 25 26 27 27 27 26 25 25 23 21 21 22 24 24 24 26 28 29 31 32 33 32 31 30 30 31 32 32 31 31
37 37 37 37 35 33 30 30 32 28 26 26 25 22 21 20 22 23 21 18 17 16 16 15 14 13 13 14 15 14 13 13 14 13 14 15 15 16 15 15 15 14 14 14 13 13 14 14 16 17 18 19 20 21 23 25 26 27 28 27 25 25 25 22 20 20 21 22 22 24 25 27 28 30 31 30 29 28 28 26 28 32 35 34 33
38 39 39 37 33 32 31 33 33 28 27 28 26 23 21 21 22 23 21 19 18 18 17 16 15 15 15 15 15 14 14 14 14 13 13 14 14 15 15 16 15 15 15 16 16 16 15 15 16 17 17 17 18 19 21 23 24 25 26 25 25 25 23 19 19 20 19 19 21 23 23 24 27 28 27 27 27 29 32 31 29 31 33 34 36
40 41 41 38 35 36 35 35 34 31 30 29 26 23 22 22 23 23 22 21 20 20 19 18 17 18 17 16 16 16 15 15 14 13 13 13 14 15 15 15 16 17 17 18 19 19 17 17 18 18 17 18 19 20 20 21 22 23 23 24 25 23 21 21 22 21 18 17 20 22 20 21 25 27 27 29 31 32 32 30 28 30 30 28 32
41 39 38 36 37 38 36 34 36 36 33 31 28 24 23 24 25 24 23 23 22 20 19 19 19 19 19 19 17 16 16 16 15 13 13 14 15 15 15 15 15 16 16 18 20 20 19 19 19 18 18 18 18 19 19 19 17 18 20 22 23 22 22 24 24 20 18 18 21 22 21 22 27 29 29 31 33 32 31 30 28 28 26 19 19
35 34 35 33 32 32 31 34 38 38 35 32 28 25 25 26 27 25 25 24 23 21 20 20 20 20 21 21 19 18 18 18 16 15 15 14 14 14 15 15 15 15 15 17 19 20 20 19 18 18 17 16 16 18 18 16 14 14 16 18 21 21 22 24 24 22 22 21 22 24 25 26 28 30 31 32 33 34 34 32 29 27 26 22 18
36 38 39 35 31 28 28 36 38 37 36 32 28 27 28 28 28 27 25 24 23 21 21 22 23 23 22 22 21 19 19 19 17 16 16 13 13 15 16 16 16 16 16 17 18 18 17 17 17 17 16 15 16 17 16 15 13 14 15 17 19 21 21 21 21 20 22 23 24 26 29 30 29 31 35 35 35 36 34 32 31 28 27 27 26
38 37 35 34 34 31 31 36 37 36 35 33 30 30 31 30 28 26 25 25 24 23 23 24 25 25 25 24 24 21 20 20 18 17 16 14 14 17 18 17 17 17 16 16 16 15 15 15 16 18 18 17 17 17 15 14 14 15 17 18 19 21 22 20 17 17 21 23 24 28 32 34 34 36 39 39 37 37 35 34 34 31 30 32 34
29 29 29 29 28 27 30 32 33 35 35 33 33 33 34 32 30 27 27 26 25 25 25 25 26 26 23 21 22 22 22 20 19 17 16 15 15 16 16 16 16 16 16 15 14 13 14 15 16 18 18 17 18 16 13 13 15 17 19 20 21 22 22 20 17 17 21 24 26 30 33 36 38 39 42 42 41 42 42 42 41 38 36 35 36
23 21 21 20 16 19 26 31 34 36 34 34 35 35 35 34 31 29 28 28 27 27 26 25 25 22 17 17 22 24 22 20 17 16 14 13 14 14 14 14 16 16 16 13 11 10 12 13 15 17 17 17 16 13 11 13 16 17 19 22 23 22 21 19 17 18 21 25 28 32 34 37 39 40 43 44 45 46 46 44 42 38 32 28 27
23 19 17 13 10 19 27 33 36 36 34 34 36 36 36 34 31 30 29 30 30 26 21 19 19 17 15 18 22 23 20 17 15 15 14 13 13 12 12 13 15 15 14 11 9 10 12 14 15 16 16 14 11 9 10 13 16 19 21 23 22 20 20 20 20 20 22 26 29 32 35 37 38 40 42 44 45 47 45 42 40 34 25 18 15
27 27 22 15 16 25 32 34 35 35 35 36 37 38 37 33 31 30 30 30 25 18 13 13 13 14 15 15 17 18 16 15 16 16 16 15 14 12 12 13 13 13 12 11 11 12 14 16 15 13 13 11 9 9 11 13 17 19 20 18 17 18 21 23 23 23 23 26 30 33 35 37 39 41 44 44 45 46 42 40 39 32 22 15 13
30 31 25 21 25 31 34 33 32 33 36 38 38 38 36 33 32 29 26 24 20 15 12 11 13 17 17 13 14 17 16 16 16 15 15 15 14 12 12 11 11 11 12 12 14 15 15 14 12 10 9 10 10 12 13 14 15 16 15 14 15 18 22 23 23 24 25 27 31 34 35 38 41 44 46 46 46 45 40 38 38 29 22 19 18
33 33 29 27 32 37 37 34 33 35 37 38 38 37 35 33 29 22 19 18 15 11 8 8 11 16 18 15 17 19 17 14 13 13 14 15 14 13 11 10 9 10 12 14 16 16 14 11 8 7 8 10 13 15 14 13 12 12 12 13 14 16 21 23 22 23 25 27 30 33 34 39 43 45 47 47 47 45 42 40 36 25 23 23 23
30 32 33 33 37 41 40 36 35 37 39 39 37 34 30 26 21 16 13 11 7 3 3 6 9 15 17 17 18 17 13 11 11 12 14 14 14 12 11 9 8 10 13 14 14 13 12 9 6 6 8 11 13 13 11 10 9 10 12 13 14 16 20 21 20 20 22 25 30 32 34 39 43 44 46 48 48 47 45 43 35 22 25 26 24
26 33 38 38 40 42 40 36 37 39 39 35 29 23 19 15 11 10 10 9 5 2 5 10 13 14 14 14 14 12 9 10 11 12 12 12 12 11 9 8 8 10 13 14 12 11 10 8 6 7 10 11 11 9 7 7 8 10 12 13 14 15 16 16 16 18 21 25 29 31 32 36 40 42 45 48 50 51 49 46 35 20 27 30 28
25 31 32 32 38 42 40 36 35 33 29 24 19 14 13 13 14 13 12 9 2 5 8 11 13 13 12 12 11 9 9 10 12 12 11 11 11 9 8 8 9 12 13 13 11 9 8 7 6 7 9 9 7 5 5 8 10 10 11 12 12 13 14 14 16 18 22 25 27 27 29 33 35 38 42 47 52 53 48 44 34 15 25 29 28
22 24 23 25 31 33 29 24 21 18 16 15 15 17 19 18 13 7 5 4 7 8 7 12 13 12 10 9 8 7 8 10 12 12 12 11 9 8 7 8 10 12 12 10 10 8 8 8 7 6 6 5 4 5 6 8 9 10 10 11 12 14 15 15 17 19 21 22 23 24 27 30 32 35 39 44 48 50 45 40 36 18 16 27 25
17 18 18 18 16 12 8 5 6 9 12 16 19 20 18 15 10 7 6 9 11 9 13 13 10 8 7 6 5 6 7 9 11 11 11 10 8 7 7 8 9 10 9 8 7 7 7 6 4 4 3 2 4 7 8 8 9 10 10 11 13 15 16 16 17 19 20 21 22 24 26 30 32 34 38 39 42 47 46 40 38 33 12 15 22
15 15 13 11 9 8 7 4 5 9 13 16 16 13 10 9 10 9 9 10 10 12 14 10 7 7 6 5 5 8 10 10 11 11 10 9 8 7 8 8 8 8 8 6 6 6 5 3 2 3 2 3 6 8 8 8 8 9 10 12 15 17 17 17 17 18 19 20 23 25 27 30 32 34 38 38 39 44 47 40 35 39 32 10 11
18 17 17 15 10 4 3 5 8 11 12 12 11 9 8 8 11 12 13 14 13 12 10 8 8 8 7 7 8 10 12 12 12 12 10 10 9 9 9 9 8 8 7 6 5 4 2 3 1 2 3 5 8 8 8 9 10 11 12 14 16 17 17 16 16 17 18 19 22 25 28 29 31 34 38 38 37 39 44 41 34 36 37 27 11
16 15 12 9 7 4 4 5 7 11 13 12 11 11 11 11 12 13 14 13 12 11 10 9 8 8 8 9 10 12 13 13 13 12 11 10 10 9 9 9 7 6 6 6 3 1 4 3 1 3 5 7 9 10 11 12 13 13 14 15 15 16 17 17 17 18 19 20 22 25 28 29 30 33 36 36 36 37 40 40 35 32 33 30 23
19 17 9 4 5 5 2 5 12 16 16 14 12 11 12 13 14 14 14 13 12 11 9 8 7 7 8 9 11 13 14 14 13 11 10 9 9 9 8 6 5 5 6 5 1 4 4 1 2 3 5 8 11 13 14 16 15 15 16 16 16 18 18 19 20 20 21 22 22 24 27 29 29 31 33 34 35 37 38 37 35 32 29 27 24
17 13 7 4 4 2 11 17 20 21 19 16 15 14 14 14 14 14 14 13 11 9 8 6 6 7 7 8 10 12 13 12 11 9 9 9 8 7 5 3 3 5 5 2 3 5 3 0 2 4 5 8 10 12 14 15 16 17 18 17 18 19 20 20 20 20 20 21 22 23 25 27 28 29 31 31 33 36 37 36 35 33 29 25 23
1 3 7 8 10 17 24 25 23 22 21 19 19 19 17 15 13 12 12 11 9 7 6 5 5 5 5 6 8 9 9 9 8 8 8 8 7 5 3 1 2 3 1 2 4 4 2 0 2 3 4 6 8 10 12 14 15 17 18 18 18 19 20 20 19 20 20 21 22 23 24 25 26 27 28 29 31 33 35 35 34 33 30 26 22
19 21 22 24 25 27 29 28 25 24 23 21 22 22 20 18 15 12 11 10 8 6 5 4 4 5 5 6 7 7 7 7 7 7 7 7 7 6 3 0 2 2 0 2 2 2 1 2 3 4 5 6 7 9 11 13 14 15 16 18 18 18 19 19 18 18 20 21 22 23 24 24 25 26 27 28 29 30 31 33 33 31 30 28 25
26 26 25 27 28 28 29 28 27 26 26 24 23 22 21 20 18 15 12 10 8 7 5 4 5 6 7 7 7 6 6 6 6 6 5 5 7 7 4 1 2 2 1 3 2 3 4 4 5 6 7 7 8 9 10 12 13 14 14 15 16 16 16 17 17 18 19 21 22 23 24 25 26 27 27 27 27 27 28 30 32 31 28 26 25
23 23 20 21 23 24 26 27 27 26 25 24 23 22 20 19 19 18 16 14 11 9 7 6 6 6 6 6 6 6 6 6 5 4 3 3 6 8 7 4 2 2 1 2 2 4 5 5 5 6 6 7 8 9 10 11 12 13 14 14 14 14 14 15 17 18 19 21 22 23 24 25 26 27 27 27 27 27 27 28 29 28 27 25 24
15 15 15 16 19 22 24 25 24 23 22 22 22 22 21 20 20 19 18 17 15 13 11 9 8 7 7 7 7 7 6 5 3 2 0 3 5 8 9 8 5 3 2 3 3 4 4 4 5 5 5 6 7 8 9 10 10 11 12 14 14 13 14 15 16 17 18 20 22 23 23 25 26 26 26 25 25 25 26 26 26 25 25 25 24
11 11 13 15 17 19 20 19 18 18 18 19 20 21 20 20 20 19 17 16 16 15 14 13 12 11 10 9 8 7 5 3 3 2 1 3 4 5 8 10 9 7 4 3 2 2 2 3 3 4 4 4 5 6 7 9 9 9 11 13 13 13 13 14 15 16 18 19 21 22 23 23 25 26 25 25 25 25 24 25 25 25 25 26 24
11 11 13 14 16 17 16 15 14 14 15 16 17 18 18 19 19 18 17 16 16 16 16 16 15 13 12 10 9 8 6 4 4 2 0 1 1 4 8 10 10 7 5 3 1 1 2 1 1 3 4 4 4 5 6 8 9 10 10 12 12 11 11 11 12 14 17 19 20 22 22 22 23 25 24 24 25 25 25 25 26 25 26 27 26
12 11 11 12 13 13 13 13 13 13 13 14 15 16 17 18 18 18 17 17 17 17 17 18 17 16 14 12 10 9 8 8 8 7 4 2 3 6 7 7 7 6 5 3 1 1 2 2 2 3 3 4 4 5 7 8 9 10 10 11 11 9 8 9 11 13 16 18 20 21 22 22 23 23 23 23 24 25 25 25 26 26 26 26 25
11 10 11 11 10 10 11 11 11 11 12 13 14 15 16 17 18 18 18 17 16 16 16 17 18 17 15 13 11 11 10 10 11 11 10 7 6 7 7 6 6 6 5 3 2 2 2 2 2 2 2 4 5 6 7 9 10 9 9 9 9 9 9 10 12 14 16 18 19 20 21 22 22 23 23 23 23 24 24 25 25 25 24 24 23
12 11 11 10 9 9 9 10 10 11 12 13 14 15 16 17 17 17 17 17 16 16 16 17 19 18 16 13 11 10 10 10 9 10 10 10 11 11 9 7 7 7 5 4 3 2 1 2 1 2 2 3 5 6 8 10 9 8 8 8 8 9 10 11 12 14 16 18 19 20 21 22 22 23 23 23 23 24 24 24 24 24 23 23 24
10 11 10 10 9 9 9 9 11 13 13 14 14 15 15 16 15 15 16 16 16 16 16 17 18 18 16 13 11 8 8 8 7 7 9 12 14 13 10 8 7 7 6 5 3 2 2 2 1 1 2 3 4 7 8 9 9 8 8 8 8 9 10 11 13 14 16 17 18 19 20 21 22 22 23 24 24 24 24 24 24 24 23 23 24
9 9 9 8 8 8 9 11 12 13 13 13 13 13 13 12 11 12 13 14 14 16 16 17 17 17 15 13 11 9 8 8 8 9 11 13 12 11 9 7 6 6 6 5 4 3 3 3 2 1 1 3 4 7 9 9 9 8 8 8 8 9 10 12 13 14 15 16 18 18 19 20 22 22 23 24 24 24 24 25 25 25 24 24 24
10 9 8 7 4 4 7 10 12 12 12 12 11 10 10 9 10 10 11 11 13 15 17 18 19 17 14 12 11 10 9 8 9 10 11 11 11 10 8 6 4 5 5 5 4 4 4 3 3 2 2 3 4 6 9 9 8 8 8 8 8 9 10 12 13 13 14 16 17 18 18 19 21 22 23 24 25 25 25 25 25 25 25 25 24
9 8 7 6 3 4 8 11 12 11 10 7 6 6 7 9 11 11 10 10 11 14 17 19 19 17 14 11 10 10 9 9 10 10 10 10 10 9 7 5 5 6 6 5 4 5 5 4 3 3 2 3 4 6 9 9 8 7 8 7 7 8 10 11 12 13 14 15 17 17 18 19 20 21 22 23 24 25 25 26 25 25 26 25 25
5 4 4 4 3 6 10 11 9 8 7 6 7 8 10 12 12 11 10 9 10 12 16 18 18 16 14 11 9 9 10 11 11 10 10 10 9 8 6 6 7 9 8 7 6 5 5 4 4 3 2 2 4 6 8 9 8 6 7 7 7 8 9 11 12 13 13 14 15 16 17 18 19 20 21 22 23 23 25 25 25 25 26 26 25
4 3 3 4 6 8 9 7 6 6 8 9 11 12 12 11 10 10 10 10 10 12 14 17 17 15 13 10 8 9 11 11 10 10 10 9 9 8 6 6 9 12 11 8 6 6 6 4 3 2 1 1 3 6 9 10 8 6 6 6 5 6 7 9 10 11 11 12 13 14 15 16 17 17 18 19 21 22 23 24 25 25 25 25 25
4 2 1 3 5 6 6 6 7 8 9 10 11 11 11 10 10 9 10 10 10 11 13 16 16 15 12 10 9 10 10 9 9 9 9 8 7 7 6 7 11 14 12 8 7 7 6 4 3 2 1 1 2 4 8 10 8 6 5 5 4 4 6 7 8 9 10 10 10 11 12 14 15 16 16 17 19 20 22 23 24 24 25 25 26
6 3 0 4 6 7 6 6 7 8 10 11 11 10 10 10 11 11 11 10 11 12 15 16 16 15 13 12 11 11 10 10 10 10 9 8 8 7 9 12 14 14 12 10 8 7 6 5 4 2 1 1 2 3 7 10 9 6 5 5 3 3 4 6 7 7 8 8 8 9 10 11 12 13 15 16 17 19 21 22 22 23 24 25 26
5 6 4 2 5 8 9 9 9 9 11 12 13 13 12 11 12 13 13 13 13 14 16 17 17 17 16 15 13 11 11 12 12 11 12 12 11 11 13 15 14 12 12 11 9 7 7 6 4 3 2 2 2 3 6 10 10 6 5 6 4 2 3 5 6 6 6 6 8 9 9 9 10 12 14 15 15 16 20 21 21 22 24 25 25
2 4 5 5 4 4 6 9 12 14 14 15 15 15 15 15 15 15 15 16 16 16 17 18 18 18 18 16 14 13 12 13 13 13 14 15 15 15 16 16 14 13 13 11 8 7 8 7 5 4 3 3 2 2 5 9 11 9 6 6 4 2 2 3 4 5 5 6 9 10 9 8 9 11 13 14 14 15 18 21 21 22 23 24 24
4 4 4 4 5 6 5 4 5 8 12 15 18 18 17 17 17 17 17 19 20 20 20 20 19 18 17 17 15 14 12 13 13 13 13 14 17 19 18 15 13 14 13 11 9 9 9 9 7 6 5 4 3 3 4 7 10 9 8 6 5 1 3 3 3 4 5 6 9 10 9 8 10 12 14 15 15 16 18 20 20 21 23 24 23
Wind_Direction
197 196 196 199 202 203 206 208 208 208 208 210 211 210 210 213 226 241 241 241 241 242 250 254 257 264 270 277 281 285 290 293 299 300 297 296 295 297 297 291 291 294 291 279 259 253 253 249 252 260 256 251 249 245 242 249 270 276 269 267 267 267 267 266 267 280 295 302 305 310 317 319 316 317 317 316 317 317 313 308 304 298 292 287 282
196 196 195 197 202 205 206 207 206 206 209 212 212 210 210 218 231 237 237 240 245 250 256 257 260 264 266 274 282 289 295 296 298 299 296 294 291 291 292 289 290 289 285 279 266 259 254 250 259 262 249 247 254 251 249 254 263 269 267 262 261 262 264 264 268 275 290 301 305 308 314 316 313 315 317 314 314 315 313 311 308 303 297 291 285
194 194 193 195 202 206 206 205 204 205 207 211 213 213 216 224 231 234 237 242 246 251 255 255 257 261 264 271 277 284 291 292 294 296 295 295 293 291 289 287 286 285 282 278 274 273 266 261 268 261 242 248 263 259 255 257 260 265 269 267 262 264 266 265 267 272 280 295 303 306 311 312 311 313 315 314 312 312 310 309 309 305 300 295 290
193 191 192 196 202 204 204 205 205 204 206 211 216 219 220 221 226 233 240 244 249 254 255 254 255 260 265 271 276 281 285 288 294 297 296 297 294 291 290 288 288 288 287 281 275 276 274 272 274 263 249 254 259 256 257 258 257 260 263 266 265 266 271 270 270 273 275 286 296 301 306 308 308 311 314 313 311 310 307 306 306 306 303 299 294
191 190 192 197 202 202 200 204 207 205 206 212 219 222 220 219 226 235 241 246 253 257 256 254 254 255 258 265 273 279 285 289 294 294 294 296 297 295 294 292 291 293 293 288 280 277 278 278 278 267 256 257 260 260 259 254 253 260 262 263 265 267 271 273 274 276 275 279 289 297 302 303 304 308 311 311 310 309 308 305 304 304 304 303 298
189 189 192 196 201 200 198 203 206 205 207 213 219 221 218 221 229 237 242 247 251 251 250 250 249 250 253 260 270 279 283 284 285 285 289 294 297 298 297 292 289 290 290 288 284 281 281 282 282 274 261 262 266 264 257 252 255 262 261 260 262 265 267 270 274 277 278 280 286 294 299 301 302 305 309 310 308 306 306 306 304 303 303 304 301
188 188 191 196 200 198 196 201 204 204 208 214 218 221 220 223 230 237 241 241 240 240 241 241 243 250 256 264 274 277 276 279 282 284 288 292 295 295 293 287 283 284 283 281 279 279 281 283 284 281 274 275 275 268 261 261 264 267 266 260 259 264 265 267 272 277 281 284 287 290 295 300 301 301 306 309 307 303 302 302 303 303 303 301 298
187 188 191 197 198 192 191 203 208 206 209 214 217 221 222 226 233 237 236 233 235 238 237 239 246 255 261 267 271 269 270 280 286 288 289 290 290 289 284 277 276 279 279 278 278 278 280 285 287 287 285 284 282 277 275 276 273 274 272 262 255 262 266 265 271 278 282 285 288 291 295 299 300 301 305 309 307 303 303 300 297 298 299 298 294
187 188 192 196 194 186 190 205 210 208 211 213 215 218 221 227 232 232 231 234 241 242 242 249 257 260 260 264 266 265 270 279 282 285 289 287 285 284 280 273 271 275 277 279 282 282 283 289 294 294 291 291 292 291 290 286 280 278 277 268 262 264 266 266 272 280 284 286 289 293 295 297 299 301 305 307 303 301 302 299 292 292 294 294 291
187 190 193 193 191 189 195 204 207 207 210 212 213 214 217 224 228 228 231 239 243 243 247 254 257 257 259 261 264 264 266 274 281 286 287 285 284 283 279 275 273 276 281 284 285 285 286 291 297 299 298 298 299 298 296 292 286 282 282 278 273 270 269 273 279 285 288 287 290 294 294 293 296 300 302 302 300 299 299 296 292 292 293 291 291
189 190 191 191 191 190 194 204 207 206 207 211 213 212 215 222 226 229 235 240 241 243 249 252 251 254 257 257 259 261 262 266 274 280 280 282 285 283 278 277 277 280 287 291 290 290 290 292 296 299 301 303 302 300 299 297 292 286 284 282 279 277 278 279 281 286 288 286 288 291 290 290 296 300 300 300 300 299 297 294 290 289 288 284 287
187 187 188 191 192 188 194 208 208 205 207 210 210 212 217 222 225 229 234 237 240 244 249 251 251 253 254 253 254 255 257 260 263 269 275 279 284 284 281 279 280 287 296 298 297 296 296 296 294 295 300 305 306 305 301 293 287 284 285 284 281 283 286 285 283 286 289 286 285 288 290 293 297 301 300 300 300 298 296 292 286 281 278 273 271
184 185 186 187 186 188 205 215 210 205 208 210 210 214 217 220 224 228 233 237 240 244 248 251 252 254 253 251 251 253 256 256 258 267 272 273 279 286 285 280 281 291 303 306 305 304 303 300 295 294 299 304 306 306 299 288 281 278 280 281 281 285 293 290 285 289 292 286 281 285 291 295 295 297 299 298 297 296 294 290 285 278 271 266 264
184 181 178 177 181 192 212 216 210 209 212 210 211 215 217 219 223 227 233 237 239 242 246 248 251 255 254 250 249 252 254 252 255 264 266 266 277 286 282 276 279 293 306 311 312 313 313 307 300 300 304 305 305 302 292 281 278 277 280 282 283 289 294 288 284 296 301 293 285 285 292 296 295 296 298 298 295 293 291 288 284 278 270 267 266
170 163 161 167 179 199 214 213 210 213 214 211 212 215 218 220 223 227 232 235 237 241 244 247 251 254 256 259 259 257 254 250 254 262 263 266 278 282 275 271 279 294 305 312 315 319 322 317 312 312 311 309 305 297 282 279 281 281 283 284 287 291 290 282 284 301 308 303 296 293 296 300 300 299 300 299 296 293 291 288 284 278 273 269 266
134 135 147 159 180 214 217 211 213 217 215 212 213 216 219 220 223 227 229 232 238 242 243 248 253 255 263 277 274 262 252 249 255 259 260 266 274 272 266 270 280 292 303 312 316 318 320 319 319 319 314 307 300 287 278 284 285 282 282 287 292 292 284 280 289 303 309 311 308 305 306 308 308 305 304 302 300 298 295 289 283 275 267 261 258
135 143 153 161 210 236 222 209 213 219 216 212 213 216 219 222 225 228 229 233 237 239 243 249 253 258 274 281 267 252 244 248 253 251 251 257 260 256 260 272 283 292 300 308 310 313 317 315 315 318 314 305 295 285 288 292 289 287 287 289 292 288 283 288 296 302 311 316 316 315 316 316 314 313 312 310 309 305 296 286 280 269 251 245 250
160 166 169 181 218 230 221 213 216 220 215 212 214 216 219 223 229 231 231 233 235 233 236 244 250 263 280 280 257 242 243 253 254 249 250 252 248 248 262 273 279 286 293 301 309 316 319 316 315 317 313 305 300 301 302 296 291 291 289 288 290 289 293 300 300 301 311 318 321 323 324 323 322 322 321 318 316 311 299 288 285 270 238 225 239
174 171 173 186 203 213 218 222 223 220 215 213 214 217 222 228 233 232 229 230 233 231 235 255 274 274 272 268 253 248 253 257 254 251 249 244 240 247 260 264 267 278 291 303 313 320 321 319 319 321 312 303 304 309 306 297 293 290 286 287 291 294 301 303 298 301 309 317 322 325 326 329 330 329 326 324 322 318 309 302 298 276 232 219 228
186 178 179 189 196 205 219 229 229 223 218 217 218 222 226 230 230 227 224 229 235 236 245 280 283 260 249 248 247 247 250 249 245 242 238 234 238 248 254 254 262 279 297 310 317 320 323 324 329 333 319 305 305 309 306 297 290 286 286 294 297 298 303 302 296 300 307 313 320 323 327 332 333 330 329 329 328 325 320 319 311 277 229 217 220
189 182 188 194 195 202 218 230 228 223 221 222 223 224 226 230 229 222 217 219 218 212 276 290 260 238 236 241 237 234 236 237 234 236 238 238 240 245 247 252 269 287 303 314 319 321 322 325 333 335 319 309 309 309 304 295 293 296 302 308 306 303 305 302 299 304 310 315 320 323 329 334 332 331 332 332 332 332 330 331 323 279 230 218 215
193 192 197 196 193 202 217 225 222 221 222 223 222 220 223 223 209 185 173 164 142 38 313 276 248 231 225 222 220 222 228 232 234 238 241 240 239 242 248 260 281 297 307 313 317 321 320 315 318 319 312 311 314 311 307 310 315 316 315 316 314 312 312 310 310 314 317 321 324 325 330 334 331 330 333 334 336 338 337 337 331 283 232 221 215
205 202 201 199 200 206 214 218 217 218 221 220 211 197 183 166 151 145 146 147 119 332 295 250 221 203 197 200 210 223 226 228 235 238 238 238 241 247 258 276 295 304 307 307 309 315 315 308 311 310 305 309 316 315 323 328 325 323 323 325 328 330 328 327 328 329 327 328 328 326 329 332 329 328 333 335 337 339 337 339 340 295 230 223 219
199 191 191 203 211 211 210 212 216 220 223 215 193 171 159 155 157 163 182 231 284 287 237 203 189 183 194 207 213 220 222 227 232 234 234 239 244 253 268 289 302 304 306 304 300 302 306 307 306 294 288 305 317 317 326 329 328 331 336 340 346 348 346 342 340 341 339 336 331 326 327 331 329 328 332 334 336 338 338 343 354 347 239 226 224
178 174 184 201 204 192 178 189 214 218 209 194 180 170 167 175 199 237 255 262 264 230 184 177 184 195 213 228 227 228 231 229 227 227 230 237 243 256 278 297 302 301 304 302 296 297 301 299 285 255 255 306 326 324 327 329 335 344 350 356 1 1 359 356 351 350 346 337 330 327 328 332 332 331 334 336 338 343 344 345 359 11 358 238 230
153 147 149 142 121 90 69 83 137 164 171 173 176 179 184 195 211 225 224 215 205 185 173 178 200 213 230 251 241 230 230 227 224 223 226 232 243 261 283 296 297 294 295 294 297 299 287 255 222 222 253 333 340 340 342 342 349 2 9 13 15 11 7 3 358 354 347 336 332 332 330 332 337 340 342 343 344 347 349 348 358 13 17 8 230
117 113 113 112 107 81 63 109 137 152 160 168 176 178 176 181 189 195 191 181 176 177 185 199 212 218 232 240 228 223 228 230 229 229 232 240 251 268 285 294 294 289 286 291 305 300 216 163 133 304 311 336 343 350 359 1 6 15 20 21 19 15 10 7 1 355 347 339 335 334 333 338 346 347 346 345 346 348 351 354 1 10 14 20 29
70 69 88 119 135 113 88 117 163 178 176 171 167 163 165 175 180 182 181 180 184 191 198 210 221 227 231 228 222 223 230 234 235 236 239 246 259 275 285 289 291 294 298 306 313 167 153 140 33 329 323 336 343 349 360 6 12 17 20 21 19 14 11 9 5 1 356 349 343 340 342 346 350 349 346 345 346 349 353 357 3 8 12 19 27
24 29 39 79 81 59 75 201 200 191 179 170 165 163 168 177 180 179 181 186 194 202 208 220 233 240 240 235 229 227 232 236 235 235 241 252 264 273 276 279 290 304 312 313 264 151 147 135 349 343 340 344 349 355 360 5 12 16 17 17 15 13 12 10 5 2 359 355 349 347 348 349 348 349 350 347 346 350 355 358 1 4 9 18 23
16 17 15 27 25 262 216 204 194 185 177 171 167 163 163 170 176 177 180 185 193 205 216 228 239 244 244 239 232 231 237 240 234 233 251 263 260 255 255 271 304 316 318 312 156 153 153 96 4 356 350 355 1 4 4 5 6 7 9 12 13 11 9 8 5 3 360 357 354 352 352 350 349 350 351 349 348 351 354 358 1 3 5 13 19
62 181 199 217 230 219 205 194 185 179 175 173 171 166 161 162 168 175 180 184 189 199 212 222 229 230 230 227 224 225 230 235 236 245 261 258 238 223 218 245 315 325 328 140 142 148 165 31 15 2 5 21 23 17 12 10 7 5 4 6 8 9 8 7 6 5 2 358 357 358 357 353 352 352 352 351 351 353 355 358 2 3 2 6 12
205 199 201 210 212 204 193 186 181 177 174 173 173 171 165 158 158 164 172 177 180 187 199 211 210 206 207 212 215 216 219 227 238 247 246 230 214 203 182 133 335 336 224 181 157 131 120 81 65 53 48 49 44 32 23 17 12 9 5 2 3 7 9 8 8 8 7 3 359 359 360 358 356 356 356 355 354 355 356 359 1 2 0 2 4
212 215 212 206 198 188 184 184 183 179 177 175 175 176 175 170 166 163 163 167 172 178 184 189 194 201 208 212 214 215 214 213 218 223 222 216 212 207 197 201 319 323 256 220 196 133 113 95 81 72 59 49 41 31 23 17 12 11 9 5 4 6 8 10 13 14 12 8 4 2 1 2 1 360 360 359 358 358 359 0 1 1 359 359 360
221 225 213 195 187 185 185 186 185 182 181 182 184 186 187 186 180 171 165 163 166 168 168 167 173 187 198 201 195 185 179 181 187 198 215 233 231 223 215 215 260 299 279 200 149 116 102 87 77 65 48 39 33 23 17 13 12 12 10 7 5 5 8 12 14 15 13 10 8 5 4 5 5 3 1 0 359 359 2 2 1 0 359 358 358
212 209 196 186 186 186 183 182 183 185 190 193 194 194 192 190 185 180 176 174 173 169 166 162 160 163 166 168 168 161 157 164 174 172 247 295 268 242 225 215 213 214 170 118 97 85 77 66 55 43 32 27 24 20 16 15 15 14 9 5 2 2 7 12 13 14 14 11 8 6 5 5 6 5 4 3 1 360 360 359 358 360 0 359 358
180 179 180 183 185 184 183 186 190 195 200 200 197 195 193 189 185 184 184 183 178 174 170 164 159 160 164 168 170 166 154 153 166 158 50 335 301 251 217 201 193 182 160 131 97 48 10 5 15 23 31 35 30 24 20 16 14 12 6 2 359 360 6 12 12 13 16 14 11 9 7 5 6 7 6 5 4 1 359 358 358 0 1 0 0
188 182 178 181 185 187 190 195 195 198 202 200 195 192 191 189 188 187 185 182 180 178 175 170 167 170 173 172 175 179 180 180 183 181 69 354 275 212 197 189 185 177 164 147 121 10 347 354 46 52 49 51 41 27 17 8 4 2 359 356 356 360 7 13 15 17 19 18 15 13 10 7 7 8 7 5 4 2 0 0 1 1 2 4 5
195 194 189 187 187 185 186 187 184 183 187 187 186 188 190 189 188 187 185 183 182 183 181 178 176 179 180 179 183 195 206 210 209 213 225 236 205 199 196 191 183 174 164 152 123 74 63 88 105 84 51 36 24 15 10 3 356 353 352 353 358 6 15 21 23 24 24 21 18 16 14 10 8 9 9 7 3 1 1 1 2 1 1 4 6
192 192 189 188 187 187 186 182 178 179 181 182 184 189 191 187 184 186 187 184 183 186 187 185 184 186 185 185 195 211 224 233 235 234 234 229 208 198 196 187 173 167 164 162 150 128 115 109 104 84 43 21 13 9 4 358 352 348 352 360 10 20 27 31 31 29 27 24 21 18 17 14 11 10 12 10 6 3 2 2 3 3 1 360 2
183 177 176 179 183 187 188 186 187 198 203 198 190 187 186 184 183 187 189 187 186 190 191 189 191 193 191 193 209 225 230 233 236 232 224 211 196 191 191 186 177 175 175 176 169 154 161 162 121 69 30 14 10 5 360 358 359 2 8 16 27 36 38 39 37 33 30 27 23 20 19 17 14 12 12 12 9 6 5 3 3 5 5 3 3
174 171 173 178 181 184 190 197 204 207 205 197 187 181 181 183 185 190 191 188 186 191 195 195 196 196 194 197 208 211 203 199 198 192 188 184 181 184 189 191 191 193 196 195 193 186 183 176 149 61 36 29 17 5 2 6 14 23 28 33 44 53 51 46 41 38 34 30 26 22 20 19 17 14 12 13 13 11 10 9 7 8 10 11 10
158 156 157 165 178 188 192 195 197 197 193 187 182 179 180 180 180 186 190 188 187 191 192 190 189 190 190 192 193 189 186 187 181 174 174 176 180 187 193 194 200 208 209 207 206 201 191 178 163 112 51 41 21 8 9 16 23 29 36 45 57 61 55 47 42 40 37 33 29 25 22 21 21 18 15 16 17 15 12 12 12 12 14 15 16
142 138 133 132 152 212 211 195 185 178 174 170 166 169 178 184 183 184 184 182 188 193 187 179 178 181 182 183 188 194 198 193 181 178 180 183 189 195 194 186 185 190 191 195 202 202 199 190 172 143 75 50 28 14 15 20 25 31 39 51 63 63 54 47 43 40 37 35 33 29 26 24 23 21 19 19 20 19 16 15 15 15 16 18 20
129 129 125 121 128 228 212 190 173 162 160 167 178 195 207 207 200 192 179 169 179 189 186 180 179 178 176 180 193 206 209 200 191 187 186 186 193 200 199 192 189 185 183 191 203 204 202 196 179 152 104 60 29 14 15 18 22 33 41 50 63 66 57 48 43 38 34 34 33 32 29 27 24 22 21 22 23 22 19 18 17 17 18 20 22
107 103 105 120 155 180 179 176 176 182 197 217 226 220 213 209 205 200 189 176 180 190 189 184 181 179 178 183 194 206 209 208 205 201 198 197 201 206 209 214 216 208 200 200 207 208 205 198 186 167 125 63 25 15 16 18 20 30 41 47 60 67 59 48 42 38 35 33 33 33 33 30 27 24 23 24 27 27 23 21 21 20 20 22 22
116 111 114 144 165 172 174 182 198 205 205 208 207 202 201 206 211 212 205 194 189 191 190 187 185 183 182 183 189 199 206 211 215 219 218 213 209 214 228 233 217 206 200 200 205 209 210 207 203 196 160 58 24 18 20 20 19 27 37 44 57 68 60 50 44 41 38 35 35 36 35 32 30 29 28 28 32 33 30 28 27 25 23 24 24
118 124 145 173 180 189 197 198 193 189 190 196 202 204 208 215 221 220 215 209 205 201 197 193 190 187 184 182 186 191 195 199 206 214 215 209 208 216 222 208 193 190 191 194 197 199 204 209 207 201 187 23 10 16 20 20 20 27 34 38 57 78 69 57 49 45 42 40 36 35 35 33 32 33 34 34 36 37 36 34 32 29 29 29 28
88 83 220 233 225 224 222 208 199 201 205 207 210 215 220 225 228 225 221 219 215 208 203 200 197 194 192 189 188 188 190 195 202 208 211 217 226 220 199 187 183 185 187 188 188 190 196 203 205 202 206 310 350 9 15 17 21 31 35 33 49 93 87 68 57 52 50 46 37 33 34 35 35 36 37 38 39 39 40 39 37 35 34 33 33
72 63 45 325 266 254 247 237 227 225 225 224 225 226 227 230 232 229 225 222 216 207 203 203 202 201 199 196 194 196 202 211 219 220 219 225 231 218 197 188 187 188 188 187 188 191 195 199 207 217 228 264 324 359 14 17 18 23 26 25 34 90 103 76 62 60 59 50 39 37 40 42 41 40 40 41 42 43 45 45 43 42 40 39 38
15 26 31 29 16 328 281 260 250 244 241 237 234 232 231 232 233 233 229 224 218 210 206 204 205 208 209 207 205 206 213 224 231 232 233 235 230 214 199 194 194 195 193 191 188 190 197 203 210 219 230 252 291 331 6 13 11 7 5 8 14 57 124 103 71 66 69 58 45 45 51 54 49 45 44 46 46 48 49 49 48 46 45 43 42
312 328 359 24 32 33 24 351 298 273 259 249 243 239 237 235 234 235 233 227 222 218 215 212 212 213 214 213 211 213 219 226 228 228 229 227 215 203 196 196 198 198 196 193 189 192 200 207 210 215 222 234 251 282 342 6 10 7 2 355 353 12 149 144 95 70 76 66 51 50 61 66 58 52 51 52 51 51 52 53 52 50 49 48 48